Date String (YYYY-MM-DD hh:mm:ss) UTC,Instrument flags,absolute air pressure of the measurement (hPa),sample flow rate (lpm),inlet stack bypass flow (lpm),air temperature of the measurement (°C),ambient temperature measured by the external sensor (°C),aerosol sample conditioner tube jacket temperature (°C),OPC LED temperature (°C),internal box temperature (°C),relative humidity of the measurement (%),span deviation,mass concentration of particles derived from Lorenz-Mie calculation of OPC scattering (μg/m³),mass concentration of particles derived from Lorenz-Mie calculation of OPC scattering (μg/m³),mass concentration of particles derived from Lorenz-Mie calculation of OPC scattering (μg/m³)
DateTimeUTC,F1_M11,P_M11,Q1_M11,Q2_M11,T1_M11,T2_M11,T3_M11,T4_M11,T5_M11,U1_M11,ZSPAN_M11,X0_M11,X2_M11,X1_M11
2024-05-07 08:00:00,SystemResetWarning,0815.1,5.00,000.00,021.1,020.4,000.0,029.3,022.7,010.1,0000.0,0005.21,0002.14,0001.05
2024-05-07 08:01:00,SystemResetWarning,0815.2,5.00,000.00,021.1,020.4,000.0,029.3,022.6,009.8,0000.0,0005.28,0002.18,0001.04
2024-05-07 08:02:00,SystemResetWarning,0815.2,5.00,000.00,021.1,020.4,000.0,029.3,022.7,009.8,0000.0,0005.10,0002.12,0001.03
2024-05-07 08:03:00,SystemResetWarning,0815.1,5.01,000.00,021.1,020.4,000.0,029.3,022.7,009.8,0000.0,0005.28,0002.10,0001.01
2024-05-07 08:04:00,SystemResetWarning,0815.1,5.01,000.00,021.1,020.4,000.0,029.3,022.8,009.8,0000.0,0005.51,0002.07,0001.01
2024-05-07 08:05:00,SystemResetWarning,0815.0,5.00,000.00,021.1,020.4,000.0,029.3,022.7,009.7,0000.0,0005.62,0002.11,0001.01
2024-05-07 08:06:00,SystemResetWarning,0815.3,5.00,000.00,021.1,020.3,000.0,029.3,022.7,009.9,0000.0,0005.28,0002.08,0001.01
2024-05-07 08:07:00,SystemResetWarning,0815.4,5.00,000.00,021.1,020.3,000.0,029.3,022.7,010.1,0000.0,0004.92,0002.04,0001.01
2024-05-07 08:08:00,SystemResetWarning,0815.4,5.00,000.00,021.1,020.3,000.0,029.3,022.7,010.3,0000.0,0004.80,0002.01,0001.01
2024-05-07 08:09:00,SystemResetWarning,0815.6,5.00,000.00,021.1,020.3,000.0,029.3,022.7,010.3,0000.0,0004.90,0002.04,0001.01
2024-05-07 08:10:00,SystemResetWarning,0815.5,5.00,000.00,021.1,020.3,000.0,029.3,022.7,010.5,0000.0,0005.11,0002.02,0001.01
2024-05-07 08:11:00,SystemResetWarning,0815.6,5.01,000.00,021.1,020.3,000.0,029.3,022.7,010.8,0000.0,0005.53,0002.05,0001.02
2024-05-07 08:12:00,SystemResetWarning,0815.6,5.00,000.00,021.1,020.3,000.0,029.3,022.7,010.9,0000.0,0005.35,0002.00,0001.02
2024-05-07 08:13:00,SystemResetWarning,0815.5,5.00,000.00,021.1,020.3,000.0,029.3,022.7,011.2,0000.0,0005.24,0001.97,0001.03
2024-05-07 08:14:00,SystemResetWarning,0815.6,5.00,000.00,021.1,020.3,000.0,029.3,022.7,011.4,0000.0,0005.03,0001.97,0001.04
2024-05-07 08:15:00,SystemResetWarning,0815.6,5.00,000.00,021.1,020.3,000.0,029.3,022.7,011.4,0000.0,0004.57,0001.93,0001.04
2024-05-07 08:16:00,SystemResetWarning,0815.4,4.99,000.00,021.1,020.3,000.0,029.2,022.7,011.4,0000.0,0004.48,0001.92,0001.02
2024-05-07 08:17:00,SystemResetWarning,0815.5,5.00,000.00,021.1,020.3,000.0,029.2,022.7,011.2,0000.0,0004.46,0001.91,0001.01
2024-05-07 08:18:00,SystemResetWarning,0815.6,5.00,000.00,021.0,020.3,000.0,029.2,022.7,011.2,0000.0,0005.43,0002.00,0001.00
2024-05-07 08:19:00,SystemResetWarning,0815.3,4.99,000.00,021.0,020.3,000.0,029.2,022.7,011.3,0000.0,0005.49,0001.96,0001.00
2024-05-07 08:20:00,SystemResetWarning,0815.3,5.00,000.00,021.0,020.3,000.0,029.2,022.6,011.2,0000.0,0005.34,0001.90,0000.99
2024-05-07 08:21:00,SystemResetWarning,0815.5,5.00,000.00,021.0,020.3,000.0,029.2,022.6,011.2,0000.0,0005.29,0001.93,0000.98
2024-05-07 08:22:00,SystemResetWarning,0815.6,5.01,000.00,021.0,020.3,000.0,029.2,022.7,011.3,0000.0,0004.72,0001.90,0000.97
2024-05-07 08:23:00,SystemResetWarning,0815.7,5.00,000.00,021.0,020.3,000.0,029.2,022.6,011.3,0000.0,0004.82,0001.95,0000.98
2024-05-07 08:24:00,SystemResetWarning,0815.7,5.00,000.00,021.0,020.3,000.0,029.2,022.6,011.5,0000.0,0005.11,0002.00,0000.99
2024-05-07 08:25:00,SystemResetWarning,0815.8,5.00,000.00,021.0,020.3,000.0,029.2,022.6,011.6,0000.0,0005.00,0001.97,0000.98
2024-05-07 08:26:00,SystemResetWarning,0815.7,5.00,000.00,021.0,020.3,000.0,029.2,022.6,011.6,0000.0,0005.08,0001.99,0000.96
2024-05-07 08:27:00,SystemResetWarning,0815.7,5.00,000.00,021.0,020.3,000.0,029.2,022.5,011.6,0000.0,0005.11,0001.98,0000.96
2024-05-07 08:28:00,SystemResetWarning,0815.7,5.00,000.00,021.0,020.3,000.0,029.2,022.6,011.4,0000.0,0005.08,0001.96,0000.98
2024-05-07 08:29:00,SystemResetWarning,0815.7,4.99,000.00,021.0,020.3,000.0,029.2,022.6,011.5,0000.0,0004.35,0001.92,0000.99
2024-05-07 08:30:00,SystemResetWarning,0815.7,4.99,000.00,021.0,020.3,000.0,029.2,022.6,011.9,0000.0,0004.16,0001.97,0000.98
2024-05-07 08:31:00,SystemResetWarning,0815.7,5.00,000.00,021.0,020.3,000.0,029.2,022.6,012.0,0000.0,0004.16,0002.00,0001.00
2024-05-07 08:32:00,SystemResetWarning,0815.7,5.00,000.00,021.0,020.3,000.0,029.2,022.6,012.1,0000.0,0004.10,0001.97,0001.00
2024-05-07 08:33:00,SystemResetWarning,0815.6,5.00,000.00,021.0,020.2,000.0,029.2,022.6,012.1,0000.0,0004.11,0001.98,0001.01
2024-05-07 08:34:00,SystemResetWarning,0815.7,5.00,000.00,021.0,020.2,000.0,029.2,022.6,012.0,0000.0,0004.02,0001.96,0001.01
2024-05-07 08:35:00,SystemResetWarning,0815.6,5.01,000.00,021.0,020.2,000.0,029.2,022.6,011.7,0000.0,0003.94,0001.99,0001.02
2024-05-07 08:36:00,SystemResetWarning,0815.9,5.01,000.00,021.0,020.2,000.0,029.1,022.6,011.7,0000.0,0003.88,0002.01,0001.04
2024-05-07 08:37:00,SystemResetWarning,0815.8,5.00,000.00,021.0,020.2,000.0,029.2,022.6,011.9,0000.0,0004.00,0002.02,0001.05
2024-05-07 08:38:00,SystemResetWarning,0815.7,5.00,000.00,021.0,020.2,000.0,029.1,022.6,011.8,0000.0,0004.37,0002.09,0001.06
2024-05-07 08:39:00,SystemResetWarning,0815.7,4.99,000.00,021.0,020.2,000.0,029.1,022.6,011.6,0000.0,0004.46,0002.13,0001.08
2024-05-07 08:40:00,SystemResetWarning,0815.8,4.99,000.00,020.9,020.2,000.0,029.1,022.5,011.1,0000.0,0004.57,0002.16,0001.08
2024-05-07 08:41:00,SystemResetWarning,0816.0,5.01,000.00,020.9,020.2,000.0,029.1,022.5,010.7,0000.0,0004.74,0002.18,0001.11
2024-05-07 08:42:00,SystemResetWarning,0816.1,5.01,000.00,020.9,020.2,000.0,029.1,022.5,011.3,0000.0,0004.73,0002.18,0001.12
2024-05-07 08:43:00,SystemResetWarning,0815.9,5.01,000.00,020.9,020.2,000.0,029.1,022.5,011.7,0000.0,0004.67,0002.17,0001.12
2024-05-07 08:44:00,SystemResetWarning,0815.7,5.00,000.00,020.9,020.1,000.0,029.1,022.5,011.8,0000.0,0004.55,0002.13,0001.10
2024-05-07 08:45:00,SystemResetWarning,0815.7,5.00,000.00,020.9,020.1,000.0,029.1,022.5,011.8,0000.0,0004.53,0002.13,0001.11
2024-05-07 08:46:00,SystemResetWarning,0816.1,5.01,000.00,020.9,020.1,000.0,029.1,022.5,011.9,0000.0,0004.52,0002.13,0001.11
2024-05-07 08:47:00,SystemResetWarning,0816.1,5.00,000.00,020.9,020.1,000.0,029.1,022.5,012.0,0000.0,0004.60,0002.13,0001.10
2024-05-07 08:48:00,SystemResetWarning,0816.1,5.00,000.00,020.9,020.1,000.0,029.1,022.4,012.0,0000.0,0004.67,0002.13,0001.10
2024-05-07 08:49:00,SystemResetWarning,0816.0,5.00,000.00,020.9,020.1,000.0,029.1,022.4,012.0,0000.0,0004.43,0002.05,0001.11
2024-05-07 08:50:00,SystemResetWarning,0816.1,5.00,000.00,020.9,020.1,000.0,029.1,022.5,012.0,0000.0,0004.25,0002.02,0001.10
2024-05-07 08:51:00,SystemResetWarning,0816.1,5.00,000.00,020.9,020.1,000.0,029.1,022.5,012.0,0000.0,0004.23,0002.01,0001.09
2024-05-07 08:52:00,SystemResetWarning,0816.3,5.00,000.00,020.9,020.1,000.0,029.1,022.5,012.1,0000.0,0004.46,0001.93,0001.06
2024-05-07 08:53:00,SystemResetWarning,0816.0,4.99,000.00,020.9,020.1,000.0,029.1,022.5,012.1,0000.0,0004.87,0001.98,0001.06
2024-05-07 08:54:00,SystemResetWarning,0816.0,4.99,000.00,020.9,020.1,000.0,029.1,022.5,012.0,0000.0,0005.05,0002.04,0001.06
2024-05-07 08:55:00,SystemResetWarning,0815.9,5.00,000.00,020.9,020.1,000.0,029.1,022.5,012.1,0000.0,0005.13,0002.08,0001.06
2024-05-07 08:56:00,SystemResetWarning,0815.9,5.00,000.00,020.9,020.1,000.0,029.1,022.5,012.1,0000.0,0005.21,0002.11,0001.06
2024-05-07 08:57:00,SystemResetWarning,0816.0,5.00,000.00,020.9,020.1,000.0,029.1,022.5,012.1,0000.0,0005.18,0002.09,0001.07
2024-05-07 08:58:00,SystemResetWarning,0816.1,5.01,000.00,020.9,020.1,000.0,029.0,022.5,012.1,0000.0,0005.22,0002.11,0001.07
2024-05-07 08:59:00,SystemResetWarning,0816.0,5.01,000.00,020.9,020.1,000.0,029.0,022.5,012.1,0000.0,0005.20,0002.12,0001.07
